7 * 24
多渠道服务支持
ORBCOMM FM18 是一颗由 ORBCOMM 公司运营的低轨(LEO)卫星,属于其全球物联网通信网络的一部分。该卫星主要用于提供远程机器对机器(M2M)通信服务,支持物流、运输、能源和环境监测等行业。FM18 采用蜂窝卫星通信技术,运行在 137-152 MHz 和 401-403 MHz 频段,具备全球覆盖能力,能够实现低带宽数据传输。该卫星是 ORBCOMM 第二代卫星系统的一部分,旨在提升网络性能和可靠性。
| 数据来源 | 国际轨道数据 |
| 星历时间: | 2026-02-06T15:51:52+0800 6小时前 查看轨道信息 |
| 半长轴: | 7138.767km |
| 偏心率: | 0.0002829 |
| 轨道倾角: | 44.991° |
| 近地点辐角 | 12.037° |
| 升交点赤经 | 143.084° |
| 平近点角 | 348.054° |
| 近地点: | 758.61km |
| 远地点: | 762.65km |
| 周期: | 100.045分钟 |
| 每日圈数: | 14.393554 |